SL-3 R/B (13068 NORAD) Tracking and Keplerian Element Data

This shows tracking and keplerian element data for the satellite.

Feedback or suggestion? Click here.




ElementValue
Catalog13068
NameSL-3 R/B
Epoch Orbit17536
Epoch Day15.8502158
Epoch Year2022
RAAN110.5445
Inclination81.2019
Eccentricity0.002107
Argument of Perigee182.4907
Mean Anonmoly177.6216
Mean Motion15.0787048
Decay Rate8.97E-06
L11 13068U 82013B 22015.85021580 .00000897 00000+0 56734-4 0 9993
L22 13068 81.2019 110.5445 0021070 182.4907 177.6216 15.07870480175364

Live tracking and technical data element details for SL-3 R/B (NORAD 13068). SL-3 R/B can be tracked NOW for your location showing map with azimuth and elevation plus other details from your city location.

Track the satellite on the map from your city or location and see movement details for azimuth, elevation, latitude, longitude, range, height, and movement on the map or in text.







IsCatalogInMostPopularTable: catalog: 13068, numindb: 242
Update: records affected: 1



GetName: 13068 SL-3 R/B

Hit Count: updated at: Mon, 17 Jan 2022 01:02:59 GMT